TimeEDT,TemperatureF,Dew PointF,Humidity,Sea Level PressureIn,VisibilityMPH,Wind Direction,Wind SpeedMPH,Gust SpeedMPH,PrecipitationIn,Events,Conditions,WindDirDegrees,DateUTC
12:53 AM,79.0,71.1,77,30.00,10.0,West,6.9,-,N/A,,Clear,270,2013-05-24 04:53:00
1:53 AM,78.1,72.0,81,29.99,10.0,Calm,Calm,-,N/A,,Clear,0,2013-05-24 05:53:00
2:53 AM,77.0,71.1,82,29.98,10.0,WSW,3.5,-,N/A,,Clear,240,2013-05-24 06:53:00
3:53 AM,75.9,71.1,85,29.97,10.0,WSW,5.8,-,N/A,,Clear,250,2013-05-24 07:53:00
4:53 AM,75.9,71.1,85,29.99,10.0,WSW,4.6,-,N/A,,Clear,250,2013-05-24 08:53:00
5:53 AM,75.0,72.0,90,29.99,10.0,West,4.6,-,N/A,,Clear,260,2013-05-24 09:53:00
6:53 AM,75.0,72.0,90,30.02,10.0,WSW,4.6,-,N/A,,Partly Cloudy,240,2013-05-24 10:53:00
7:53 AM,77.0,73.0,88,30.04,10.0,West,4.6,-,N/A,,Scattered Clouds,280,2013-05-24 11:53:00
8:53 AM,80.1,73.0,79,30.04,10.0,Variable,4.6,-,N/A,,Partly Cloudy,0,2013-05-24 12:53:00
9:53 AM,82.9,72.0,69,30.05,10.0,WNW,5.8,-,N/A,,Partly Cloudy,300,2013-05-24 13:53:00
10:53 AM,86.0,73.0,65,30.05,10.0,Variable,4.6,-,N/A,,Scattered Clouds,0,2013-05-24 14:53:00
11:53 AM,90.0,71.1,54,30.06,10.0,NW,8.1,-,N/A,,Scattered Clouds,310,2013-05-24 15:53:00
12:53 PM,91.0,66.9,45,30.05,10.0,WNW,9.2,-,N/A,,Scattered Clouds,290,2013-05-24 16:53:00
1:53 PM,93.0,64.0,38,30.03,10.0,Calm,Calm,-,N/A,,Scattered Clouds,0,2013-05-24 17:53:00
2:53 PM,87.1,71.1,59,30.02,10.0,ESE,9.2,-,N/A,,Mostly Cloudy,120,2013-05-24 18:53:00
3:53 PM,87.1,71.1,59,30.02,10.0,SE,10.4,-,N/A,,Mostly Cloudy,130,2013-05-24 19:53:00
4:53 PM,84.0,73.0,69,30.01,9.0,ESE,8.1,-,0.01,Rain,Light Rain,110,2013-05-24 20:53:00
5:53 PM,82.9,73.0,72,30.02,10.0,ESE,10.4,-,0.05,,Mostly Cloudy,110,2013-05-24 21:53:00
6:26 PM,84.2,71.6,66,30.01,10.0,NE,8.1,-,0.00,Thunderstorm,Thunderstorm,50,2013-05-24 22:26:00
6:53 PM,79.0,66.9,66,30.04,9.0,WSW,5.8,16.1,0.00,Rain-Thunderstorm,Light Thunderstorms and Rain,240,2013-05-24 22:53:00
7:15 PM,78.8,68.0,69,30.03,10.0,West,3.5,-,0.01,Rain,Light Rain,260,2013-05-24 23:15:00
7:53 PM,77.0,64.9,66,30.02,10.0,Calm,Calm,-,0.01,,Mostly Cloudy,0,2013-05-24 23:53:00
8:53 PM,80.1,71.1,74,30.05,10.0,ESE,8.1,-,N/A,,Mostly Cloudy,120,2013-05-25 00:53:00
9:53 PM,80.1,73.9,81,30.06,10.0,East,8.1,-,N/A,,Mostly Cloudy,100,2013-05-25 01:53:00
10:53 PM,80.1,73.9,81,30.07,10.0,ESE,4.6,-,N/A,,Mostly Cloudy,120,2013-05-25 02:53:00
11:53 PM,75.9,69.1,79,30.08,10.0,West,3.5,-,N/A,,Mostly Cloudy,270,2013-05-25 03:53:00